FDX5383 KOAK-KPHX

Flight info

Callsign FDX5383
Flight time N/A
Altitude 31000
Route CNDEL5 KAYEX LOSHN BOILE BLH HYDRR1
Aircraft MD11/H-SDE1E2E3FGHIJ2J3J4J5M1RWXY/LB1D1

Departure

Time 2026-05-04 03:04
Airport San Francisco Bay Oakland International Airport (KOAK)

Arrival

Time N/A
Airport Phoenix Sky Harbor International Airport (KPHX)
Time Latitude Longitude Altitude Speed Heading
2026-05-04 02:37 37.71791 -122.21912 24 ft 0 kts 312°
2026-05-04 02:39 37.71781 -122.21897 28 ft 4 kts 312°
2026-05-04 02:40 37.71769 -122.21880 25 ft 2 kts 312°
2026-05-04 02:40 37.71759 -122.21866 26 ft 2 kts 289°
2026-05-04 02:40 37.71760 -122.21849 29 ft 2 kts 210°
2026-05-04 02:40 37.71762 -122.21848 29 ft 0 kts 212°
2026-05-04 02:45 37.71744 -122.21862 27 ft 0 kts 212°
2026-05-04 02:47 37.71740 -122.21873 26 ft 5 kts 236°
2026-05-04 02:47 37.71698 -122.21942 27 ft 15 kts 230°
2026-05-04 02:47 37.71683 -122.21963 25 ft 0 kts 228°
2026-05-04 02:47 37.71667 -122.21985 26 ft 11 kts 228°
2026-05-04 02:48 37.71611 -122.22043 21 ft 2 kts 192°
2026-05-04 02:48 37.71542 -122.22010 22 ft 12 kts 142°
2026-05-04 02:48 37.71476 -122.21991 23 ft 9 kts 197°
2026-05-04 02:48 37.71434 -122.22045 21 ft 15 kts 227°
2026-05-04 02:49 37.71324 -122.22197 19 ft 29 kts 227°
2026-05-04 02:49 37.71189 -122.22348 17 ft 8 kts 219°
2026-05-04 02:49 37.71188 -122.22350 17 ft 0 kts 219°
2026-05-04 03:01 37.71169 -122.22369 16 ft 17 kts 219°
2026-05-04 03:01 37.71096 -122.22432 16 ft 0 kts 195°
2026-05-04 03:01 37.71060 -122.22414 17 ft 18 kts 142°
2026-05-04 03:02 37.70962 -122.22268 15 ft 35 kts 130°
2026-05-04 03:02 37.70771 -122.21985 18 ft 44 kts 130°
2026-05-04 03:02 37.70587 -122.21710 18 ft 34 kts 130°
2026-05-04 03:02 37.70433 -122.21478 15 ft 28 kts 130°
2026-05-04 03:03 37.70320 -122.21384 16 ft 18 kts 161°
2026-05-04 03:03 37.70214 -122.21382 16 ft 13 kts 219°
2026-05-04 03:03 37.70183 -122.21474 14 ft 10 kts 285°
2026-05-04 03:03 37.70256 -122.21590 13 ft 57 kts 310°
2026-05-04 03:04 37.70906 -122.22569 63 ft 212 kts 309°
2026-05-04 03:04 37.71886 -122.24052 1171 ft 237 kts 309°
2026-05-04 03:04 37.73030 -122.25835 2491 ft 285 kts 308°
2026-05-04 03:04 37.73763 -122.27045 3988 ft 250 kts 305°
2026-05-04 03:05 37.70235 -122.21360 17 ft 1 kts 213°
2026-05-04 03:05 37.70167 -122.21453 15 ft 0 kts 310°
2026-05-04 03:06 37.70169 -122.21455 15 ft 0 kts 310°
2026-05-04 03:07 37.70171 -122.21459 15 ft 1 kts 310°
2026-05-04 03:07 37.70182 -122.21475 16 ft 15 kts 310°
2026-05-04 03:07 37.70561 -122.22049 17 ft 153 kts 309°
2026-05-04 03:07 37.71430 -122.23372 368 ft 218 kts 309°
2026-05-04 03:08 37.72424 -122.24961 1247 ft 240 kts 307°
2026-05-04 03:08 37.73533 -122.26712 2047 ft 274 kts 309°
2026-05-04 03:08 37.74816 -122.28683 3206 ft 291 kts 310°
2026-05-04 03:08 37.76165 -122.30693 4696 ft 302 kts 310°
2026-05-04 03:09 37.77390 -122.32531 7546 ft 253 kts 310°
2026-05-04 03:09 37.78449 -122.34120 9846 ft 227 kts 310°
2026-05-04 03:09 37.79479 -122.35663 11270 ft 231 kts 310°
2026-05-04 03:09 37.80527 -122.37234 12501 ft 237 kts 310°
2026-05-04 03:10 37.81600 -122.38843 13650 ft 242 kts 310°
2026-05-04 03:10 37.82696 -122.40486 14762 ft 246 kts 310°
2026-05-04 03:10 37.83811 -122.42158 15845 ft 251 kts 310°
2026-05-04 03:10 37.84890 -122.43870 16845 ft 253 kts 300°
2026-05-04 03:11 37.85446 -122.46034 17739 ft 261 kts 272°
2026-05-04 03:11 37.85094 -122.48262 18619 ft 267 kts 242°
2026-05-04 03:11 37.83843 -122.49996 19494 ft 275 kts 211°
2026-05-04 03:11 37.81960 -122.50724 20000 ft 297 kts 181°
2026-05-04 03:12 37.79913 -122.50127 20747 ft 293 kts 154°
2026-05-04 03:12 37.78081 -122.49243 22235 ft 282 kts 170°
2026-05-04 03:12 37.77170 -122.49131 22637 ft 282 kts 182°
2026-05-04 03:12 37.76008 -122.49334 23127 ft 284 kts 197°